Weather History for MHTG - January, 2013

Change the Weather History Date:

Monday, January 21, 2013

  Actual Average Record
Temperature  
Mean Temperature 69 °F -  
Max Temperature 79 °F 79 °F 86 °F (2011)
Min Temperature 59 °F 57 °F 46 °F (2005)
Cooling Degree Days 4    
Growing Degree Days 19 (Base 50)    
Moisture  
Dew Point 61 °F    
Average Humidity 84    
Maximum Humidity 100    
Minimum Humidity 55    
Precipitation  
Precipitation 0.00 in 0.01 in - ()
Sea Level Pressure  
Sea Level Pressure 30.08 in    
Wind  
Wind Speed 9 mph ()    
Max Wind Speed 18 mph    
Max Gust Speed -    
Visibility 5.8 miles    
Events Rain    
Averages and records for this station are not official NWS values.
T = Trace of Precipitation, MM = Missing Value Source: Averaged Metar Reports

Daily Weather History Graph

Daily Weather History Graph

Search for Another Location

Airport or City:

Trip Planner

Search our weather history database for the weather conditions in past years. The results will help you decide how hot, cold, wet, or windy it might be!

Date:

Astronomy

Jan. 21, 2013 Rise Set
Actual Time 6:17 AM CST 5:43 PM CST
Civil Twilight 5:54 AM CST 6:06 PM CST
Nautical Twilight 5:28 AM CST 6:32 PM CST
Astronomical Twilight 5:02 AM CST 6:58 PM CST
Moon 1:26 PM CST (1/21) 1:43 AM CST (1/21)
Length of Visible Light 12h 11m
Length of Day
11h 26m
Waxing Gibbous, 75% of the Moon is Illuminated
Jan 21
Waxing Gibbous
Jan 26
Full
Feb 3
Last Quarter
Feb 10
New
Feb 17
First Quarter

Hourly Weather History & Observations

Time (CST) Temp. Dew Point Humidity Pressure Visibility Wind Dir Wind Speed Gust Speed Precip Events Conditions
12:00 AM 61 °F 61 °F 100% 30.02 in 4 mi North 6.9 mph - - Rain Light Drizzle
12:00 AM 60.8 °F 60.8 °F 100% 30.12 in 3.7 mi North 6.9 mph - N/A   Mostly Cloudy
1:00 AM 60.8 °F 60.8 °F 100% 30.12 in 3.7 mi North 11.5 mph - N/A   Mostly Cloudy
2:00 AM 60.8 °F 60.8 °F 100% 30.09 in 3.7 mi NE 5.8 mph - N/A   Mostly Cloudy
3:00 AM 60 °F 60 °F 100% 29.99 in 4 mi NNE 8.1 mph - -   Haze
3:00 AM 60.8 °F 60.8 °F 100% 30.09 in 4.3 mi NNE 8.1 mph - N/A   Mostly Cloudy
4:00 AM 60.8 °F 60.8 °F 100% 30.09 in 4.3 mi NNE 9.2 mph - N/A   Mostly Cloudy
5:00 AM 60.8 °F 60.8 °F 100% 30.09 in 4.3 mi NNE 6.9 mph - N/A   Mostly Cloudy
6:00 AM 60.8 °F 60.8 °F 100% 30.12 in 4.3 mi North 8.1 mph - N/A   Mostly Cloudy
7:00 AM 60.8 °F 60.8 °F 100% 30.12 in 5.0 mi North 5.8 mph - N/A   Mostly Cloudy
8:00 AM 60.8 °F 60.8 °F 100% 30.15 in 6.2 mi North 8.1 mph - N/A   Scattered Clouds
9:00 AM 69.8 °F 62.6 °F 78% 30.15 in 6.2 mi North 10.4 mph - N/A   Partly Cloudy
10:00 AM 73.4 °F 62.6 °F 69% 30.15 in 6.2 mi North 13.8 mph - N/A   Scattered Clouds
11:00 AM 75.2 °F 60.8 °F 61% 30.12 in 6.2 mi North 15.0 mph - N/A   Scattered Clouds
12:00 PM 75 °F 62 °F 55% 29.93 in 9 mi North 13.8 mph - -   Haze
12:00 PM 75.2 °F 62.6 °F 65% 30.12 in 6.2 mi North 13.8 mph - N/A   Mostly Cloudy
1:00 PM 77.0 °F 62.6 °F 61% 30.09 in 6.2 mi North 16.1 mph - N/A   Mostly Cloudy
2:00 PM 75.2 °F 62.6 °F 65% 30.06 in 6.2 mi North 16.1 mph - N/A   Mostly Cloudy
3:00 PM 75 °F 62 °F 56% 29.86 in 9 mi North 16.1 mph - -   Haze
3:00 PM 75.2 °F 62.6 °F 65% 30.06 in 6.2 mi North 16.1 mph - N/A   Mostly Cloudy
4:00 PM 73.4 °F 62.6 °F 69% 30.06 in 6.2 mi North 18.4 mph - N/A   Mostly Cloudy
5:00 PM 69.8 °F 62.6 °F 78% 30.09 in 6.2 mi North 16.1 mph - N/A   Scattered Clouds
6:00 PM 65 °F 62 °F 86% 29.96 in 9 mi North 13.8 mph - -   Haze
6:00 PM 66.2 °F 62.6 °F 88% 30.09 in 6.2 mi North 13.8 mph - N/A   Scattered Clouds
7:00 PM 64.4 °F 60.8 °F 88% 30.12 in 6.2 mi North 11.5 mph - N/A   Scattered Clouds
8:00 PM 64.4 °F 60.8 °F 88% 30.15 in 6.2 mi North 11.5 mph - N/A   Mostly Cloudy
9:00 PM - - %  in 6 mi North 5.8 mph - -  
9:00 PM 64.4 °F 60.8 °F 88% 30.15 in 6.2 mi ENE 5.8 mph - N/A   Mostly Cloudy
10:00 PM 62.6 °F 60.8 °F 94% 30.15 in 6.2 mi North 5.8 mph - N/A   Scattered Clouds
11:00 PM 62.6 °F 60.8 °F 94% 30.15 in 6.2 mi North 8.1 mph - N/A   Mostly Cloudy